Regional Weather Roundup
Issued by NWS

Home | Current Version | Previous Version | Graphics & Text | Print | Product List | Glossary On
Versions: 1 2 3 4 5 6 7 8 9 10 11 12 13 14 15 16 17 18 19 20 21 22 23 24 25 26 27 28 29 30 31 32 33 34 35 36 37 38 39 40 41 42 43 44 45 46 47 48 49 50
779
ASUS44 KLIX 292110
RWRLA
LOUISIANA WEATHER ROUNDUP
NATIONAL WEATHER SERVICE NEW ORLEANS LA
400 PM CDT TUE JUL 29 2014

NOTE: "FAIR" INDICATES FEW OR NO CLOUDS BELOW 12,000 FEET WITH NO
      SIGNIFICANT WEATHER AND/OR OBSTRUCTIONS TO VISIBILITY.
      SKY/WX - SKY CONDITION AND SIGNIFICANT WEATHER.
      TMP - AIR TEMPERATURE.    DP   - DEWPOINT TEMPERATURE.
      RH  - RELATIVE HUMIDITY.  PRES - PRESSURE.
      HX  - HEAT INDEX.         WCI  - WIND CHILL INDEX.

*  THESE STATIONS ARE NOT NWS OR FAA STATIONS AND ARE NOT UNDER
   NWS QUALITY CONTROL.

LAZ040-048-061>063-065-066-069-292200-
SOUTHEAST LOUISIANA

CITY           SKY/WX    TMP DP  RH WIND       PRES   REMARKS
N.O. AUDUBON     N/A     90  66  45 MISG        N/A
N.O. INTL ARPT PTSUNNY   88  66  48 VRB6      30.03F
N.O. LAKEFRONT MOSUNNY   85  67  54 NW5       30.03F
N.O. DOWNTOWN* FAIR      88  63  42 N9        30.03S
SLIDELL        MOSUNNY   89  62  40 NW8       30.01F
BATON ROUGE    MOSUNNY   90  63  40 VRB3      30.04F
BOOTHVILLE     MOSUNNY   85  68  56 VRB6      30.02F
BELLE CHASSE   PTSUNNY   89  62  40 VRB6      30.02S
BOGALUSA*        N/A     87  63  44 N6        30.04S
GALLIANO*      NOT AVBL
NEW ROADS*     FAIR      86  64  47 N6        30.05S
GONZALES*      FAIR      87  67  50 N5        30.03S
HAMMOND*       MOSUNNY   91  57  31 N8        30.05S
HOUMA*         MOSUNNY   90  66  45 NW5       30.03F
PORT FOURCHON* CLOUDY    88  68  51 CALM      30.04S

$$

LAZ041-044-053-054-292200-
SOUTHWEST LOUISIANA

CITY           SKY/WX    TMP DP  RH WIND       PRES   REMARKS
LAKE CHARLES   PTSUNNY   87  69  54 VRB3      30.04F
LAFAYETTE      MOSUNNY   89  68  49 N10       30.04F
PATTERSON      MOSUNNY   88  72  58 N7        30.08S
SALT POINT       N/A     89  71  55 VRB3      30.03F HX  95
NEW IBERIA     MOSUNNY   90  67  46 NE6       30.04F
CHENAULT AIRPK NOT AVBL

$$

LAZ027-028-292200-
CENTRAL LOUISIANA

CITY           SKY/WX    TMP DP  RH WIND       PRES   REMARKS
FORT POLK      SUNNY     87  64  46 N9        30.07S
ALEXANDRIA INT MOSUNNY   89  63  41 NE5       30.04F
ALEXANDRIA     MOSUNNY   91  65  41 W7        30.06F

$$

LAZ001-002-292200-
NORTHWEST LOUISIANA

CITY           SKY/WX    TMP DP  RH WIND       PRES   REMARKS
SHREVEPORT     MOSUNNY   91  64  40 VRB5      30.06F
BARKSDALE AFB  SUNNY     90  64  42 CALM      30.07F
DTN SHREVEPORT SUNNY     90  62  39 NE8       30.07F

$$

LAZ014-016-292200-
NORTHEAST LOUISIANA

CITY           SKY/WX    TMP DP  RH WIND       PRES   REMARKS
MONROE         SUNNY     89  65  44 NE5       30.06F
TALLULAH       MOSUNNY   89  66  46 N9        30.05F

$$




USA.gov is the U.S. government's official web portal to all federal, state and local government web resources and services.